SCP
-0 -0 -0 -0 0 0 0 0 0 0 0 0 0 0 0 0 -0 -0 0 0 0 0 0 0 0 0 0 0 0 0 0 0 0 0 0 0 0 0
-0 -0 -0 0 0 0 0 0 0 0 0 0 0 0 0 0 0 0 0 0 0 0 0 0 0 0 0 0 0 0 0 0 0 0 0 0 0 0
-0 -0 0 0 0 0 0 0 0 0 0 0 0 0 0 0 0 0 0 0 0 0 0 0 0 0 0 0 0 0 0 0 0 0 0 0 0 0
-0 -0 0 0 0 0 0 0 0 0 0 0 0 0 0 0 0 0 0 0 0 0 0 0 0 0 0 0 0 0 0 0 0 0 0 0 0 0
-0 -0 -0 0 0 0 0 0 0 0 0 0 0 0 0 0 0 0 0 0 0 0 0 0 0 0 0 0 0 0 0 0 0 0 0 0 0 0
-0 -0 0 0 0 0 0 0 0 0 0 0 0 0 0 0 0 0 0 0 0 0 0 0 0 0 0 0 0 0 0 0 0 0 0 0 0 0
0 0 0 0 0 0 0 0 1 0 0 0 0 0 0 0 0 0 0 0 0 0 0 0 0 0 0 0 0 0 0 0 0 0 0 0 0 0
1 1 1 1 0 0 0 0 1 2 1 0 0 0 2 1 0 1 0 0 0 1 1 0 0 0 0 0 0 0 0 0 0 0 0 0 0 0
2 2 1 1 1 1 0 0 0 1 1 2 2 2 1 1 1 1 0 1 0 1 1 0 0 0 0 0 0 0 0 0 0 0 0 0 0 0
2 2 3 3 2 2 2 1 0 1 1 1 2 2 2 2 2 1 1 1 0 0 1 0 0 0 0 0 0 0 0 0 0 0 0 0 0 0
3 4 5 5 5 1 3 4 2 2 1 0 0 1 0 0 1 1 0 0 0 0 1 0 0 0 0 0 0 0 0 0 0 0 0 0 0 0
4 6 5 8 8 1 5 5 2 2 4 2 1 0 0 0 0 0 0 0 0 0 0 0 0 0 0 0 0 0 0 0 0 0 0 0 0 0
6 9 9 2 2 0 2 6 4 5 2 3 1 1 1 1 0 0 0 0 0 0 0 0 0 0 0 0 0 0 0 0 0 0 0 0 0 0
3 8 11 2 0 0 0 3 2 3 3 1 1 1 1 0 0 0 0 0 0 0 0 0 0 0 0 0 0 0 0 0 0 0 0 0 0 0
2 5 6 0 0 0 0 0 0 2 2 1 1 1 0 0 0 0 0 0 0 0 0 0 0 0 0 0 0 0 0 0 0 0 0 0 0 0
0 0 0 0 0 0 0 0 0 1 2 1 1 0 0 0 0 0 0 0 0 0 0 0 0 0 0 0 0 0 0 0 0 0 0 0 0 0
0 0 0 0 0 0 0 0 0 0 1 1 0 0 0 0 0 0 0 0 0 0 0 0 0 0 0 0 0 0 0 0 0 0 0 0 0 0
0 0 0 0 0 0 0 0 0 0 0 0 0 0 0 0 0 0 0 0 0 0 0 0 0 0 0 0 0 0 0 0 0 0 0 0 0 0
0 0 0 0 0 0 0 0 0 0 0 0 0 0 0 0 0 0 0 0 0 0 0 0 0 0 0 0 0 0 0 0 0 0 0 0 0 0
0 0 0 0 0 0 0 0 0 0 0 0 0 0 0 0 0 0 0 0 0 0 0 0 0 0 0 0 0 0 0 0 0 0 0 0 0 0
0 0 0 0 0 0 0 0 0 0 0 0 0 0 0 0 0 0 0 0 0 0 0 0 0 0 0 0 0 0 0 0 0 0 0 0 0 0
0 0 0 0 0 0 0 0 0 0 0 0 0 0 0 0 0 0 0 0 0 0 0 0 0 0 0 0 0 0 0 0 0 0 0 0 0 0
0 0 0 0 0 0 0 0 0 0 0 0 0 0 0 0 0 0 0 0 0 0 0 0 0 0 0 0 0 0 0 0 0 0 0 0 0 0
Wind_Speed_500mb
30 29 25 19 19 17 17 15 13 13 11 12 14 16 16 19 27 31 33 35 33 34 36 36 36 37 37 37 35 34 33 32 31 33 37 39 38 38
36 36 32 26 25 24 21 19 18 17 15 13 12 17 16 17 18 18 20 28 32 32 33 36 40 41 43 43 42 40 40 40 43 46 46 44 43 40
45 43 40 39 32 27 26 24 23 22 22 18 17 21 23 22 21 21 19 22 21 29 30 35 39 40 43 41 41 40 42 43 45 43 42 43 45 46
53 52 50 46 45 41 32 34 29 30 26 27 22 22 23 23 24 20 18 18 22 27 32 29 31 35 35 36 38 41 43 42 44 44 44 45 48 49
58 58 56 54 52 42 41 36 32 31 30 27 26 23 22 20 22 24 25 22 24 27 31 29 30 31 33 34 38 37 40 39 37 39 44 44 39 43
66 67 63 60 56 54 53 47 40 35 32 31 30 29 26 23 22 23 26 24 24 23 28 31 37 40 34 33 36 40 39 37 37 37 36 36 43 42
77 74 71 65 60 58 53 52 50 48 38 36 36 35 34 31 28 21 27 26 28 28 28 22 27 28 31 37 39 41 41 47 41 39 43 42 40 44
88 81 75 70 68 64 61 57 53 55 52 44 41 40 38 35 30 29 25 29 34 17 25 26 24 28 31 33 44 47 56 48 45 50 51 51 51 51
95 90 80 68 73 72 69 65 62 59 57 50 52 42 37 34 33 32 28 33 31 27 32 29 26 30 32 37 46 48 45 44 51 54 49 49 49 49
99 96 94 83 83 77 73 73 74 73 66 61 53 42 41 40 36 32 33 33 27 27 30 27 24 29 31 32 39 45 52 50 41 47 44 44 44 46
109 108 108 100 95 89 80 78 72 71 63 57 54 53 50 48 40 28 25 23 23 21 26 25 22 25 27 31 30 40 47 42 42 42 43 40 46 52
114 114 107 109 101 100 86 80 70 66 66 58 53 57 56 51 45 45 27 26 22 19 26 24 23 23 29 26 21 31 36 37 44 46 45 47 52 47
106 88 91 96 104 103 87 79 70 60 57 50 43 48 55 50 45 44 37 28 21 18 26 19 19 23 25 33 32 33 35 35 37 38 43 45 51 60
97 86 91 110 99 81 88 75 67 55 51 42 40 45 44 43 35 37 37 28 21 28 26 27 21 23 25 29 32 32 35 37 35 38 42 44 47 53
91 86 95 97 83 62 74 60 52 47 52 45 50 50 46 36 40 37 31 27 24 23 23 27 24 22 20 26 32 35 39 37 35 39 43 45 47 50
101 100 87 70 65 73 81 85 50 44 50 57 50 51 41 41 42 31 25 20 18 17 23 29 28 26 19 21 28 34 34 37 39 40 46 48 49 50
92 100 70 64 67 67 67 66 80 68 65 56 52 50 45 41 35 32 27 24 24 19 21 21 22 28 21 25 24 28 33 36 38 42 49 52 51 51
96 79 69 89 79 79 83 75 82 76 70 65 58 53 45 40 38 33 28 26 24 21 21 18 18 20 21 26 28 28 34 38 42 43 49 53 57 52
79 86 85 65 60 61 56 69 73 69 68 66 62 53 46 42 40 31 28 25 23 22 20 17 17 18 20 24 22 30 37 37 43 46 48 51 56 57
45 40 46 46 42 46 57 70 73 68 68 60 50 45 44 40 36 33 28 25 23 22 16 17 18 18 19 25 30 30 30 38 44 49 53 50 49 52
35 26 29 39 35 54 61 60 68 64 52 50 45 43 41 38 35 30 27 28 26 19 16 20 21 27 22 21 23 26 30 43 48 54 48 49 45 55
28 31 36 37 43 48 53 53 49 46 45 42 41 40 37 35 32 29 26 24 22 20 20 20 19 12 13 19 25 28 33 36 42 45 49 44 41 57
27 31 36 44 51 51 43 39 39 40 40 38 39 39 38 33 30 27 27 25 21 21 23 18 15 15 17 18 23 30 34 38 40 41 33 42 51 56
Wind_Direction_500mb
232 228 219 223 220 218 223 220 233 259 244 223 235 244 226 243 252 267 256 248 263 273 275 273 274 284 295 295 296 295 300 304 304 304 301 298 297 294
226 231 226 220 224 220 221 226 227 233 255 238 241 226 224 238 260 261 255 254 266 271 273 270 273 280 284 285 283 287 293 298 300 301 298 294 293 291
231 229 231 228 223 226 224 224 225 227 236 243 235 251 247 240 238 252 253 257 268 282 273 271 275 279 280 280 278 278 284 289 292 292 289 288 288 288
236 235 237 234 236 222 226 229 226 229 230 238 238 241 252 246 239 248 256 259 257 265 271 277 285 284 280 277 279 281 288 292 295 294 289 284 280 278
238 238 240 238 240 231 232 231 230 231 239 232 244 247 240 246 254 253 246 254 258 269 285 295 297 296 287 285 283 284 289 291 285 281 289 294 285 279
239 239 238 237 238 242 240 237 229 230 231 232 242 244 247 245 240 248 258 269 268 265 277 289 290 293 283 280 279 283 291 297 295 293 286 281 286 290
241 239 237 236 238 240 239 239 236 239 230 237 237 241 240 238 241 249 260 271 272 283 276 285 286 293 298 298 307 307 299 302 295 292 293 289 278 276
240 240 236 239 238 241 243 242 245 244 239 234 240 242 239 238 245 249 262 267 277 264 266 287 276 283 287 289 282 278 282 285 290 295 292 289 288 284
242 242 240 237 241 241 243 244 244 247 249 245 237 240 248 246 242 246 253 264 269 276 285 283 281 283 288 288 288 288 289 285 290 290 291 292 290 288
244 245 243 242 243 239 243 245 242 242 241 237 237 241 246 241 244 254 260 260 266 269 265 276 287 288 289 286 291 296 295 294 289 292 292 292 292 290
248 249 246 243 243 243 239 242 243 243 246 247 239 242 243 247 247 243 253 255 258 261 270 273 294 294 289 289 290 291 297 309 309 304 300 296 297 298
250 248 246 249 247 246 242 242 239 238 233 241 235 234 239 242 245 251 234 246 254 265 260 254 288 292 296 293 278 296 298 302 302 310 310 314 315 311
247 240 240 246 247 246 242 240 239 234 229 230 245 234 237 233 238 239 232 226 240 248 253 260 284 290 288 292 295 294 296 297 299 300 303 308 304 304
244 242 237 246 243 250 243 234 228 220 225 226 244 221 221 224 228 224 231 218 224 220 242 266 280 287 290 294 298 296 297 298 303 304 301 299 299 305
254 244 243 245 246 250 234 218 219 220 212 230 220 217 223 234 211 217 223 231 240 244 258 274 283 279 283 287 293 298 301 306 307 306 302 300 300 296
242 238 239 233 241 205 235 233 220 216 221 232 224 222 214 202 207 208 208 216 224 247 272 292 299 288 279 282 288 293 299 305 312 311 301 299 300 299
238 234 224 229 195 202 179 210 229 217 214 215 213 205 194 199 197 202 206 213 224 239 248 276 291 299 294 295 293 295 302 307 312 309 307 304 301 300
234 222 204 180 188 209 209 210 208 205 209 208 193 197 198 195 197 205 208 214 228 240 249 256 266 281 294 297 292 295 300 305 310 308 310 307 303 301
220 206 209 219 254 245 215 196 192 201 202 193 195 197 190 194 198 206 213 222 232 239 240 246 255 268 286 293 300 306 306 306 311 311 309 307 303 302
206 238 252 253 224 211 205 191 200 197 193 197 190 187 191 196 201 209 217 223 230 232 233 248 251 261 273 288 297 304 314 309 309 309 312 308 305 308
245 244 216 211 208 210 197 196 190 193 186 184 182 188 194 199 208 212 215 217 217 221 231 242 248 246 270 288 302 313 309 313 309 313 314 315 314 316
209 204 207 217 217 209 194 184 183 182 181 179 184 191 198 204 211 210 212 221 218 218 232 236 255 270 273 288 298 308 315 310 314 314 319 312 308 315
204 222 221 220 204 183 176 173 174 174 179 185 192 195 200 203 206 210 208 204 210 222 226 235 251 260 272 290 299 311 315 316 320 321 322 314 316 317
Wind_Speed_850mb
30 29 25 19 19 17 17 15 13 13 11 12 14 16 16 19 27 31 33 35 33 34 36 36 36 37 37 37 35 34 33 32 31 33 37 39 38 38
36 36 32 26 25 24 21 19 18 17 15 13 12 17 16 17 18 18 20 28 32 32 33 36 40 41 43 43 42 40 40 40 43 46 46 44 43 40
45 43 40 39 32 27 26 24 23 22 22 18 17 21 23 22 21 21 19 22 21 29 30 35 39 40 43 41 41 40 42 43 45 43 42 43 45 46
53 52 50 46 45 41 32 34 29 30 26 27 22 22 23 23 24 20 18 18 22 27 32 29 31 35 35 36 38 41 43 42 44 44 44 45 48 49
58 58 56 54 52 42 41 36 32 31 30 27 26 23 22 20 22 24 25 22 24 27 31 29 30 31 33 34 38 37 40 39 37 39 44 44 39 43
66 67 63 60 56 54 53 47 40 35 32 31 30 29 26 23 22 23 26 24 24 23 28 31 37 40 34 33 36 40 39 37 37 37 36 36 43 42
77 74 71 65 60 58 53 52 50 48 38 36 36 35 34 31 28 21 27 26 28 28 28 22 27 28 31 37 39 41 41 47 41 39 43 42 40 44
88 81 75 70 68 64 61 57 53 55 52 44 41 40 38 35 30 29 25 29 34 17 25 26 24 28 31 33 44 47 56 48 45 50 51 51 51 51
95 90 80 68 73 72 69 65 62 59 57 50 52 42 37 34 33 32 28 33 31 27 32 29 26 30 32 37 46 48 45 44 51 54 49 49 49 49
99 96 94 83 83 77 73 73 74 73 66 61 53 42 41 40 36 32 33 33 27 27 30 27 24 29 31 32 39 45 52 50 41 47 44 44 44 46
109 108 108 100 95 89 80 78 72 71 63 57 54 53 50 48 40 28 25 23 23 21 26 25 22 25 27 31 30 40 47 42 42 42 43 40 46 52
114 114 107 109 101 100 86 80 70 66 66 58 53 57 56 51 45 45 27 26 22 19 26 24 23 23 29 26 21 31 36 37 44 46 45 47 52 47
106 88 91 96 104 103 87 79 70 60 57 50 43 48 55 50 45 44 37 28 21 18 26 19 19 23 25 33 32 33 35 35 37 38 43 45 51 60
97 86 91 110 99 81 88 75 67 55 51 42 40 45 44 43 35 37 37 28 21 28 26 27 21 23 25 29 32 32 35 37 35 38 42 44 47 53
91 86 95 97 83 62 74 60 52 47 52 45 50 50 46 36 40 37 31 27 24 23 23 27 24 22 20 26 32 35 39 37 35 39 43 45 47 50
101 100 87 70 65 73 81 85 50 44 50 57 50 51 41 41 42 31 25 20 18 17 23 29 28 26 19 21 28 34 34 37 39 40 46 48 49 50
92 100 70 64 67 67 67 66 80 68 65 56 52 50 45 41 35 32 27 24 24 19 21 21 22 28 21 25 24 28 33 36 38 42 49 52 51 51
96 79 69 89 79 79 83 75 82 76 70 65 58 53 45 40 38 33 28 26 24 21 21 18 18 20 21 26 28 28 34 38 42 43 49 53 57 52
79 86 85 65 60 61 56 69 73 69 68 66 62 53 46 42 40 31 28 25 23 22 20 17 17 18 20 24 22 30 37 37 43 46 48 51 56 57
45 40 46 46 42 46 57 70 73 68 68 60 50 45 44 40 36 33 28 25 23 22 16 17 18 18 19 25 30 30 30 38 44 49 53 50 49 52
35 26 29 39 35 54 61 60 68 64 52 50 45 43 41 38 35 30 27 28 26 19 16 20 21 27 22 21 23 26 30 43 48 54 48 49 45 55
28 31 36 37 43 48 53 53 49 46 45 42 41 40 37 35 32 29 26 24 22 20 20 20 19 12 13 19 25 28 33 36 42 45 49 44 41 57
27 31 36 44 51 51 43 39 39 40 40 38 39 39 38 33 30 27 27 25 21 21 23 18 15 15 17 18 23 30 34 38 40 41 33 42 51 56
Wind_Direction_850mb
232 228 219 223 220 218 223 220 233 259 244 223 235 244 226 243 252 267 256 248 263 273 275 273 274 284 295 295 296 295 300 304 304 304 301 298 297 294
226 231 226 220 224 220 221 226 227 233 255 238 241 226 224 238 260 261 255 254 266 271 273 270 273 280 284 285 283 287 293 298 300 301 298 294 293 291
231 229 231 228 223 226 224 224 225 227 236 243 235 251 247 240 238 252 253 257 268 282 273 271 275 279 280 280 278 278 284 289 292 292 289 288 288 288
236 235 237 234 236 222 226 229 226 229 230 238 238 241 252 246 239 248 256 259 257 265 271 277 285 284 280 277 279 281 288 292 295 294 289 284 280 278
238 238 240 238 240 231 232 231 230 231 239 232 244 247 240 246 254 253 246 254 258 269 285 295 297 296 287 285 283 284 289 291 285 281 289 294 285 279
239 239 238 237 238 242 240 237 229 230 231 232 242 244 247 245 240 248 258 269 268 265 277 289 290 293 283 280 279 283 291 297 295 293 286 281 286 290
241 239 237 236 238 240 239 239 236 239 230 237 237 241 240 238 241 249 260 271 272 283 276 285 286 293 298 298 307 307 299 302 295 292 293 289 278 276
240 240 236 239 238 241 243 242 245 244 239 234 240 242 239 238 245 249 262 267 277 264 266 287 276 283 287 289 282 278 282 285 290 295 292 289 288 284
242 242 240 237 241 241 243 244 244 247 249 245 237 240 248 246 242 246 253 264 269 276 285 283 281 283 288 288 288 288 289 285 290 290 291 292 290 288
244 245 243 242 243 239 243 245 242 242 241 237 237 241 246 241 244 254 260 260 266 269 265 276 287 288 289 286 291 296 295 294 289 292 292 292 292 290
248 249 246 243 243 243 239 242 243 243 246 247 239 242 243 247 247 243 253 255 258 261 270 273 294 294 289 289 290 291 297 309 309 304 300 296 297 298
250 248 246 249 247 246 242 242 239 238 233 241 235 234 239 242 245 251 234 246 254 265 260 254 288 292 296 293 278 296 298 302 302 310 310 314 315 311
247 240 240 246 247 246 242 240 239 234 229 230 245 234 237 233 238 239 232 226 240 248 253 260 284 290 288 292 295 294 296 297 299 300 303 308 304 304
244 242 237 246 243 250 243 234 228 220 225 226 244 221 221 224 228 224 231 218 224 220 242 266 280 287 290 294 298 296 297 298 303 304 301 299 299 305
254 244 243 245 246 250 234 218 219 220 212 230 220 217 223 234 211 217 223 231 240 244 258 274 283 279 283 287 293 298 301 306 307 306 302 300 300 296
242 238 239 233 241 205 235 233 220 216 221 232 224 222 214 202 207 208 208 216 224 247 272 292 299 288 279 282 288 293 299 305 312 311 301 299 300 299
238 234 224 229 195 202 179 210 229 217 214 215 213 205 194 199 197 202 206 213 224 239 248 276 291 299 294 295 293 295 302 307 312 309 307 304 301 300
234 222 204 180 188 209 209 210 208 205 209 208 193 197 198 195 197 205 208 214 228 240 249 256 266 281 294 297 292 295 300 305 310 308 310 307 303 301
220 206 209 219 254 245 215 196 192 201 202 193 195 197 190 194 198 206 213 222 232 239 240 246 255 268 286 293 300 306 306 306 311 311 309 307 303 302
206 238 252 253 224 211 205 191 200 197 193 197 190 187 191 196 201 209 217 223 230 232 233 248 251 261 273 288 297 304 314 309 309 309 312 308 305 308
245 244 216 211 208 210 197 196 190 193 186 184 182 188 194 199 208 212 215 217 217 221 231 242 248 246 270 288 302 313 309 313 309 313 314 315 314 316
209 204 207 217 217 209 194 184 183 182 181 179 184 191 198 204 211 210 212 221 218 218 232 236 255 270 273 288 298 308 315 310 314 314 319 312 308 315
204 222 221 220 204 183 176 173 174 174 179 185 192 195 200 203 206 210 208 204 210 222 226 235 251 260 272 290 299 311 315 316 320 321 322 314 316 317